Hourly Data Report for June 27, 2018

OTTAWA INTL A
ONTARIO
Current Station Operator: NAVCAN

45°19'00.000" N
75°40'00.000" W
114.90 m
6106001
71628
YOW

Download Data

Hourly Data (June 2018)
Hourly Data Report for June 27, 2018
TIME
LST
Temp Definition
°C
Dew Point Definition
°C
Rel Hum Definition
%
Precip. Amount Definition
mm

Wind Dir Definition
10's deg

Wind Spd Definition
km/h
Visibility Definition
km
Stn Press Definition
kPa
Hmdx Definition


Wind Chill Definition


Weather Definition


00:00 15.3 7.9 61   21 7 24.1 100.39     LegendNANA
01:00 13.0 8.1 72   16 4 24.1 100.36     Cloudy
02:00 14.2 8.3 68   36 2 24.1 100.30     LegendNANA
03:00 12.3 8.6 78   8 4 24.1 100.25     LegendNANA
04:00 12.6 9.2 79   6 5 24.1 100.25     Mostly Cloudy
05:00 13.0 9.5 79   9 8 24.1 100.21     LegendNANA
06:00 14.7 10.5 76   9 7 24.1 100.17     LegendNANA
07:00 16.6 11.1 70   13 9 24.1 100.16     Cloudy
08:00 18.9 12.6 67   18 7 24.1 100.13     LegendNANA
09:00 19.9 12.8 63   15 6 24.1 100.09     LegendNANA
10:00 21.6 14.1 62   13 4 24.1 100.03 25   Cloudy
11:00 23.5 15.7 61   17 11 24.1 99.95 28   LegendNANA
12:00 23.4 16.4 64   16 11 24.1 99.90 28   LegendNANA
13:00 22.7 16.6 68   20 16 24.1 99.89 28   Cloudy
14:00 22.6 17.1 71   16 8 24.1 99.81 28   LegendNANA
15:00 22.6 16.0 66   17 16 24.1 99.77 27   LegendNANA
16:00 21.3 15.9 71   18 15 24.1 99.74 26   Cloudy
17:00 18.5 16.6 88   19 10 24.1 99.72     Rain
18:00 18.8 16.3 85   17 12 24.1 99.68     LegendNANA
19:00 18.3 16.4 89   17 17 24.1 99.66     Cloudy
20:00 17.5 16.8 95   12 8 24.1 99.63     Rain
21:00 17.6 17.0 96   10 9 16.1 99.63     Rain
22:00 17.7 17.2 97   10 7 9.7 99.61     Rain, Drizzle, Fog
23:00 17.7 17.3 97   11 9 4.8 99.57     Rain, Drizzle, Fog

Notes on Data Quality.

Legend

  • E = Estimated
  • M = Missing
  • NA = Not Available*
  • [empty] = Indicates an unobserved value
Date modified: